When you browse on this site, cookies collect data to enhance your experience and personalize the content and advertising you see.
Visit our Privacy Policy to learn more. By continuing to use the site, you agree to this use of cookies and data.
  • In Austria
  • List of Countries
  • For 7 days
  • Water Temperature
  • Weather Map
  • News
  • Weather Widgets
  • user-avatar
    Login

    Hourly Weather San Agustin Tlaxiaca

    Today, 17 November, Sunday

    Time Temperature Precipitation Wind Pressure Humidity
    00:00 +10°C° 0 mm 0 mps 573 mmHg 83%
    01:00 +10°C° 0 mm 0 mps 573 mmHg 81%
    02:00 +10°C° 0 mm 0 mps 573 mmHg 79%
    03:00 +10°C° 0 mm 0 mps 572 mmHg 79%
    04:00 +10°C° 0 mm 0 mps 572 mmHg 79%
    05:00 +10°C° 0 mm 1 mps 572 mmHg 79%
    06:00 +11°C° 0 mm 0 mps 573 mmHg 72%
    07:00 +13°C° 0 mm 0 mps 575 mmHg 65%
    08:00 +15°C° 0 mm 0 mps 576 mmHg 58%
    09:00 +18°C° 0 mm 1 mps 576 mmHg 53%
    10:00 +18°C° 0 mm 2 mps 576 mmHg 48%
    11:00 +20°C° 0 mm 2 mps 577 mmHg 42%
    12:00 +20°C° 0 mm 3 mps 576 mmHg 43%
    13:00 +20°C° 0 mm 4 mps 576 mmHg 43%
    14:00 +20°C° 0 mm 5 mps 575 mmHg 44%
    15:00 +19°C° 0 mm 4 mps 575 mmHg 50%
    16:00 +17°C° 0 mm 4 mps 574 mmHg 57%
    17:00 +16°C° 0 mm 3 mps 574 mmHg 63%
    18:00 +16°C° 0 mm 2 mps 574 mmHg 66%
    19:00 +15°C° 0 mm 2 mps 575 mmHg 70%
    20:00 +14°C° 0 mm 1 mps 575 mmHg 73%
    21:00 +14°C° 0 mm 1 mps 575 mmHg 75%
    22:00 +13°C° 0 mm 0 mps 574 mmHg 76%
    23:00 +12°C° 0 mm 0 mps 574 mmHg 77%

    Tomorrow, 18 November, Monday

    Time Temperature Precipitation Wind Pressure Humidity
    00:00 +12°C° 0 mm 0 mps 574 mmHg 75%
    01:00 +12°C° 0 mm 0 mps 574 mmHg 74%
    02:00 +12°C° 0 mm 0 mps 574 mmHg 72%
    03:00 +12°C° 0 mm 0 mps 573 mmHg 74%
    04:00 +11°C° 0 mm 0 mps 573 mmHg 76%
    05:00 +11°C° 0 mm 0 mps 573 mmHg 78%
    06:00 +12°C° 0 mm 0 mps 574 mmHg 72%
    07:00 +13°C° 0 mm 0 mps 575 mmHg 65%
    08:00 +15°C° 0 mm 0 mps 576 mmHg 59%
    09:00 +16°C° 0 mm 0 mps 576 mmHg 54%
    10:00 +19°C° 0 mm 1 mps 576 mmHg 50%
    11:00 +20°C° 0 mm 1 mps 576 mmHg 45%
    12:00 +20°C° 0 mm 2 mps 576 mmHg 46%
    13:00 +20°C° 0 mm 3 mps 575 mmHg 47%
    14:00 +20°C° 0 mm 3 mps 575 mmHg 47%
    15:00 +19°C° 0 mm 3 mps 574 mmHg 56%
    16:00 +17°C° 0 mm 3 mps 574 mmHg 65%
    17:00 +16°C° 0 mm 3 mps 573 mmHg 73%
    18:00 +15°C° 0.1 mm 2 mps 574 mmHg 76%
    19:00 +15°C° 0.1 mm 2 mps 574 mmHg 79%
    20:00 +14°C° 0.1 mm 1 mps 574 mmHg 81%
    21:00 +14°C° 0 mm 1 mps 574 mmHg 80%
    22:00 +14°C° 0 mm 1 mps 574 mmHg 79%
    23:00 +15°C° 0 mm 1 mps 574 mmHg 78%

    Day after tomorrow, 19 November, Tuesday

    Time Temperature Precipitation Wind Pressure Humidity
    00:00 +13°C° 0 mm 0 mps 574 mmHg 80%
    01:00 +12°C° 0 mm 0 mps 573 mmHg 83%
    02:00 +11°C° 0 mm 0 mps 572 mmHg 86%
    03:00 +11°C° 0 mm 0 mps 572 mmHg 86%
    04:00 +11°C° 0 mm 0 mps 572 mmHg 87%
    05:00 +10°C° 0 mm 0 mps 572 mmHg 87%
    06:00 +12°C° 0 mm 0 mps 573 mmHg 79%
    07:00 +13°C° 0 mm 0 mps 574 mmHg 72%
    08:00 +16°C° 0 mm 1 mps 575 mmHg 64%
    09:00 +18°C° 0 mm 1 mps 576 mmHg 58%
    10:00 +19°C° 0 mm 1 mps 576 mmHg 52%
    11:00 +19°C° 0 mm 2 mps 576 mmHg 46%
    12:00 +20°C° 0 mm 2 mps 576 mmHg 45%
    13:00 +20°C° 0 mm 2 mps 575 mmHg 44%
    14:00 +21°C° 0 mm 3 mps 575 mmHg 43%
    15:00 +19°C° 0 mm 3 mps 575 mmHg 49%
    16:00 +18°C° 0 mm 3 mps 574 mmHg 55%
    17:00 +17°C° 0 mm 2 mps 574 mmHg 61%
    18:00 +16°C° 0 mm 2 mps 574 mmHg 68%
    19:00 +15°C° 0 mm 2 mps 574 mmHg 75%
    20:00 +14°C° 0 mm 1 mps 574 mmHg 83%
    21:00 +14°C° 0 mm 1 mps 574 mmHg 83%
    22:00 +14°C° 0 mm 1 mps 574 mmHg 84%
    23:00 +13°C° 0 mm 0 mps 573 mmHg 85%

    20 November, Wednesday

    Time Temperature Precipitation Wind Pressure Humidity
    00:00 +12°C° 0 mm 0 mps 573 mmHg 85%
    01:00 +12°C° 0 mm 0 mps 573 mmHg 84%
    02:00 +12°C° 0 mm 0 mps 573 mmHg 84%
    03:00 +13°C° 0 mm 1 mps 573 mmHg 84%
    04:00 +13°C° 0 mm 1 mps 573 mmHg 84%
    05:00 +12°C° 0 mm 1 mps 573 mmHg 84%
    06:00 +14°C° 0 mm 1 mps 574 mmHg 77%
    07:00 +15°C° 0 mm 1 mps 575 mmHg 70%
    08:00 +18°C° 0 mm 1 mps 576 mmHg 63%
    09:00 +19°C° 0 mm 1 mps 576 mmHg 56%
    10:00 +21°C° 0 mm 1 mps 576 mmHg 50%
    11:00 +22°C° 0 mm 1 mps 577 mmHg 43%
    12:00 +23°C° 0 mm 2 mps 576 mmHg 41%
    13:00 +23°C° 0 mm 2 mps 576 mmHg 39%
    14:00 +24°C° 0 mm 2 mps 576 mmHg 36%
    15:00 +21°C° 0 mm 2 mps 575 mmHg 43%
    16:00 +20°C° 0 mm 2 mps 575 mmHg 49%
    17:00 +19°C° 0 mm 3 mps 575 mmHg 55%
    18:00 +18°C° 0 mm 2 mps 575 mmHg 60%
    19:00 +17°C° 0 mm 2 mps 575 mmHg 66%
    20:00 +16°C° 0 mm 2 mps 575 mmHg 71%
    21:00 +16°C° 0 mm 1 mps 574 mmHg 70%
    22:00 +16°C° 0 mm 1 mps 574 mmHg 69%
    23:00 +15°C° 0 mm 1 mps 574 mmHg 68%

    21 November, Thursday

    Time Temperature Precipitation Wind Pressure Humidity
    00:00 +15°C° 0 mm 1 mps 574 mmHg 68%
    01:00 +15°C° 0 mm 1 mps 574 mmHg 68%
    02:00 +14°C° 0 mm 1 mps 573 mmHg 68%
    03:00 +14°C° 0 mm 1 mps 573 mmHg 70%
    04:00 +13°C° 0 mm 1 mps 573 mmHg 72%
    05:00 +12°C° 0 mm 0 mps 573 mmHg 73%
    06:00 +14°C° 0 mm 1 mps 574 mmHg 68%
    07:00 +16°C° 0 mm 1 mps 575 mmHg 62%
    08:00 +19°C° 0 mm 1 mps 576 mmHg 57%
    09:00 +20°C° 0 mm 1 mps 577 mmHg 52%
    10:00 +21°C° 0 mm 1 mps 577 mmHg 47%
    11:00 +23°C° 0 mm 1 mps 577 mmHg 43%
    12:00 +23°C° 0 mm 1 mps 577 mmHg 41%
    13:00 +23°C° 0 mm 1 mps 576 mmHg 39%
    14:00 +24°C° 0 mm 2 mps 576 mmHg 38%
    15:00 +23°C° 0 mm 2 mps 576 mmHg 43%
    16:00 +20°C° 0 mm 2 mps 575 mmHg 49%
    17:00 +19°C° 0 mm 2 mps 575 mmHg 54%
    18:00 +18°C° 0.2 mm 2 mps 575 mmHg 60%
    19:00 +18°C° 0.2 mm 1 mps 575 mmHg 66%
    20:00 +18°C° 0.2 mm 1 mps 575 mmHg 72%
    21:00 +16°C° 0.1 mm 1 mps 574 mmHg 72%
    22:00 +16°C° 0.1 mm 1 mps 574 mmHg 73%
    23:00 +14°C° 0.1 mm 0 mps 574 mmHg 74%

    22 November, Friday

    Time Temperature Precipitation Wind Pressure Humidity
    00:00 +14°C° 0 mm 0 mps 573 mmHg 75%
    01:00 +14°C° 0 mm 0 mps 573 mmHg 75%
    02:00 +13°C° 0 mm 0 mps 573 mmHg 75%
    03:00 +13°C° 0 mm 0 mps 573 mmHg 77%
    04:00 +12°C° 0 mm 0 mps 573 mmHg 78%
    05:00 +12°C° 0 mm 0 mps 573 mmHg 80%
    06:00 +15°C° 0 mm 1 mps 574 mmHg 74%
    07:00 +16°C° 0 mm 1 mps 575 mmHg 68%
    08:00 +19°C° 0 mm 1 mps 576 mmHg 62%
    09:00 +20°C° 0 mm 1 mps 576 mmHg 57%
    10:00 +21°C° 0 mm 1 mps 576 mmHg 52%
    11:00 +23°C° 0 mm 2 mps 576 mmHg 47%
    12:00 +23°C° 0 mm 2 mps 576 mmHg 45%
    13:00 +22°C° 0 mm 3 mps 576 mmHg 43%
    14:00 +24°C° 0 mm 3 mps 575 mmHg 41%
    15:00 +21°C° 0 mm 3 mps 575 mmHg 47%
    16:00 +20°C° 0 mm 3 mps 574 mmHg 53%
    17:00 +19°C° 0 mm 2 mps 574 mmHg 59%
    18:00 +18°C° 0.1 mm 2 mps 574 mmHg 64%
    19:00 +17°C° 0.1 mm 2 mps 574 mmHg 69%
    20:00 +16°C° 0.1 mm 2 mps 574 mmHg 74%
    21:00 +16°C° 0 mm 1 mps 574 mmHg 75%
    22:00 +15°C° 0 mm 1 mps 574 mmHg 75%
    23:00 +15°C° 0 mm 1 mps 574 mmHg 76%
    Show more